This is the latest recevied weather packets stored in our database for station/object DB0ASF-4. If no packets are shown the sender has not sent any weather packets the latest 10 day(s).
| Time | Temp. | Humidity | Pressure | Rain* | Wind** | Luminosity | Snow |
|---|---|---|---|---|---|---|---|
| 1776964153 | 18.33° C | 27% | 1027.8 hPa | 0 mm | - | - | - |
| 1776963553 | 18.89° C | 27% | 1027.9 hPa | 0 mm | - | - | - |
| 1776962953 | 18.89° C | 27% | 1028 hPa | 0 mm | - | - | - |
| 1776962353 | 18.89° C | 27% | 1028.3 hPa | 0 mm | - | - | - |
| 1776961753 | 18.89° C | 27% | 1028.4 hPa | 0 mm | - | - | - |
| 1776961153 | 19.44° C | 27% | 1028.5 hPa | 0 mm | - | - | - |
| 1776960553 | 19.44° C | 27% | 1028.6 hPa | 0 mm | - | - | - |
| 1776959953 | 19.44° C | 26% | 1028.5 hPa | 0 mm | - | - | - |
| 1776959353 | 20° C | 26% | 1028.5 hPa | 0 mm | - | - | - |
| 1776958753 | 20° C | 25% | 1028.6 hPa | 0 mm | - | - | - |
| 1776958153 | 20° C | 25% | 1028.9 hPa | 0 mm | - | - | - |
| 1776957553 | 20.56° C | 25% | 1029 hPa | 0 mm | - | - | - |
| 1776956953 | 21.11° C | 23% | 1029.3 hPa | 0 mm | - | - | - |
| 1776956353 | 22.22° C | 22% | 1029.3 hPa | 0 mm | - | - | - |
| 1776955753 | 23.33° C | 20% | 1029.3 hPa | 0 mm | - | - | - |
| 1776955153 | 26.11° C | 20% | 1029.5 hPa | 0 mm | - | - | - |
| 1776954553 | 27.78° C | 20% | 1029.6 hPa | 0 mm | - | - | - |
| 1776953953 | 28.89° C | 17% | 1029.8 hPa | 0 mm | - | - | - |
| 1776953353 | 30° C | 17% | 1030 hPa | 0 mm | - | - | - |
| 1776952753 | 30° C | 17% | 1030 hPa | 0 mm | - | - | - |
| 1776952153 | 30° C | 17% | 1030.3 hPa | 0 mm | - | - | - |
| 1776951553 | 30° C | 17% | 1030.3 hPa | 0 mm | - | - | - |
| 1776950953 | 27.78° C | 19% | 1030.4 hPa | 0 mm | - | - | - |
| 1776950353 | 26.67° C | 19% | 1030.5 hPa | 0 mm | - | - | - |
| 1776949753 | 25.56° C | 21% | 1031 hPa | 0 mm | - | - | - |
* Rain latest hour (hover to see other rain measurements)
** Current wind speed in m/s (hover to see current wind gust speed)